FW4206 Weather Reports


time (UTC)temp
C
wind
direction
speed
KPH
gust
KPH
rain 1hr
cm
rain 24hr
cm
rain mn
cm
humidity
%
barometer
mb
20260507064559 12 359 11.3 19.3 0.00 0.00 0.00 58 1015.7
20260507063052 12 359 8.0 17.7 0.00 0.00 0.00 58 1015.6
20260507061535 12 359 6.4 17.7 0.00 0.00 0.00 58 1015.4
20260507060040 12 359 1.6 9.7 0.00 0.00 0.00 59 1015.3
20260507054626 12 354 1.6 9.7 0.00 0.00 0.00 59 1015.3
20260507053032 12 359 1.6 6.4 0.00 0.00 0.00 59 1015.3
20260507051532 12 359 1.6 8.0 0.00 0.00 0.00 58 1015.2
20260507050035 12 359 1.6 8.0 0.00 0.00 0.00 58 1015.1
20260507044530 12 354 1.6 8.0 0.00 0.00 0.00 58 1015.0
20260507043058 12 359 1.6 6.4 0.00 0.00 0.00 58 1015.0
20260507041558 12 359 1.6 8.0 0.00 0.00 0.00 58 1015.0
20260507040049 12 359 0.0 9.7 0.00 0.00 0.00 58 1014.9
20260507034549 13 359 3.2 8.0 0.00 0.00 0.00 58 1014.9
20260507033047 13 359 6.4 14.5 0.00 0.00 0.00 57 1014.7
20260507031521 13 359 3.2 9.7 0.00 0.00 0.00 56 1014.8
20260507030020 13 359 3.2 12.9 0.00 0.00 0.00 55 1014.6
20260507024524 14 359 8.0 19.3 0.00 0.00 0.00 55 1014.6
20260507023051 14 359 6.4 17.7 0.00 0.00 0.00 55 1014.6
20260507021551 14 359 6.4 20.9 0.00 0.00 0.00 55 1014.5
20260507020048 14 359 4.8 17.7 0.00 0.00 0.00 55 1014.5
20260507014552 15 359 4.8 16.1 0.00 0.00 0.00 55 1014.6
20260507013054 15 359 6.4 17.7 0.00 0.00 0.00 55 1014.7
20260507011546 15 359 9.7 19.3 0.00 0.00 0.00 55 1014.9
20260507010053 15 359 12.9 22.5 0.00 0.00 0.00 55 1015.0
20260507004546 15 359 12.9 22.5 0.00 0.00 0.00 56 1015.0
20260507003042 15 359 12.9 24.1 0.00 0.00 0.00 55 1015.1
20260507001544 15 359 14.5 24.1 0.00 0.00 0.00 54 1015.2
20260507000015 16 359 16.1 24.1 0.00 0.00 0.00 53 1015.4
20260506234518 16 359 9.7 17.7 0.00 0.00 0.00 53 1015.5
20260506233006 16 359 4.8 12.9 0.00 0.00 0.00 53 1015.7
20260506231506 16 359 4.8 12.9 0.00 0.00 0.00 52 1015.8
20260506230005 16 359 4.8 12.9 0.00 0.00 0.00 52 1015.8
20260506224508 17 359 4.8 12.9 0.00 0.00 0.00 52 1015.8
20260506223038 17 359 3.2 12.9 0.00 0.00 0.00 51 1015.9
20260506221538 17 359 6.4 9.7 0.00 0.00 0.00 52 1015.8
20260506220036 17 359 6.4 16.1 0.00 0.00 0.00 52 1015.8
20260506214531 18 359 6.4 16.1 0.00 0.00 0.00 54 1015.8
20260506213031 17 359 8.0 14.5 0.00 0.00 0.00 58 1015.8
20260506211531 17 359 4.8 9.7 0.00 0.00 0.00 61 1015.6
20260506210022 17 359 6.4 9.7 0.00 0.00 0.00 61 1015.6
20260506204512 17 359 4.8 9.7 0.00 0.00 0.00 60 1015.3
20260506203113 17 359 3.2 12.9 0.00 0.00 0.00 60 1014.9
20260506201533 17 359 6.4 12.9 0.00 0.00 0.00 60 1015.0
20260506200037 17 359 11.3 14.5 0.00 0.00 0.00 60 1014.8
20260506194527 17 359 9.7 17.7 0.00 0.00 0.00 59 1014.7
20260506193028 17 359 9.7 22.5 0.00 0.00 0.00 59 1014.6
20260506191525 17 359 11.3 22.5 0.00 0.00 0.00 57 1014.6
20260506190124 18 359 17.7 25.7 0.00 0.00 0.00 56 1014.5
20260506184602 18 359 19.3 27.4 0.00 0.00 0.00 55 1014.5
20260506183054 18 359 17.7 32.2 0.00 0.00 0.00 54 1014.5
20260506181524 18 359 20.9 33.8 0.00 0.00 0.00 51 1014.5
20260506180022 18 359 20.9 33.8 0.00 0.00 0.00 48 1014.7
20260506174553 18 359 22.5 38.6 0.00 0.00 0.00 45 1014.7
20260506173105 19 359 20.9 38.6 0.00 0.00 0.00 45 1014.8
20260506171552 19 359 20.9 38.6 0.00 0.00 0.00 44 1014.9
20260506170056 18 359 27.4 37.0 0.00 0.00 0.00 45 1015.0
20260506164558 19 359 25.7 37.0 0.00 0.00 0.00 43 1015.0
20260506163046 20 359 22.5 38.6 0.00 0.00 0.00 39 1015.2
20260506161514 20 359 29.0 40.2 0.00 0.00 0.00 37 1015.1
20260506160016 20 359 25.7 40.2 0.00 0.00 0.00 38 1015.2
20260506154506 20 359 24.1 40.2 0.00 0.00 0.00 39 1015.3
20260506153041 20 359 25.7 33.8 0.00 0.00 0.00 40 1015.4
20260506151511 20 359 22.5 40.2 0.00 0.00 0.00 42 1015.4
20260506150011 20 359 27.4 35.4 0.00 0.00 0.00 42 1015.7
20260506144505 20 359 24.1 37.0 0.00 0.00 0.00 43 1015.9
20260506143006 20 359 20.9 35.4 0.00 0.00 0.00 39 1016.1
20260506141501 20 359 22.5 33.8 0.00 0.00 0.00 39 1016.2
20260506140100 21 359 16.1 30.6 0.00 0.00 0.00 41 1016.4
20260506134551 21 359 16.1 35.4 0.00 0.00 0.00 41 1016.6
20260506133057 21 359 22.5 32.2 0.00 0.00 0.00 36 1016.6
20260506131545 21 359 12.9 27.4 0.00 0.00 0.00 35 1016.8
20260506130015 21 359 17.7 27.4 0.00 0.00 0.00 35 1017.0
20260506123050 21 359 9.7 22.5 0.00 0.00 0.00 34 1017.2
20260506121558 22 359 1.6 12.9 0.00 0.00 0.00 30 1017.4
20260506114552 21 359 1.6 16.1 0.00 0.00 0.00 32 1017.7
20260506113049 21 359 3.2 8.0 0.00 0.00 0.00 32 1017.9
20260506111546 21 359 6.4 12.9 0.00 0.00 0.00 35 1017.9
20260506110043 20 359 6.4 14.5 0.00 0.00 0.00 35 1018.2
20260506104540 20 359 6.4 17.7 0.00 0.00 0.00 38 1018.2
20260506103035 20 359 4.8 17.7 0.00 0.00 0.00 38 1018.2
20260506101530 20 359 0.0 8.0 0.00 0.00 0.00 39 1018.4
20260506100026 20 359 3.2 9.7 0.00 0.00 0.00 39 1018.4
20260506094552 18 359 1.6 9.7 0.00 0.00 0.00 44 1018.3
20260506093051 17 359 4.8 12.9 0.00 0.00 0.00 45 1018.3
20260506091543 17 359 4.8 12.9 0.00 0.00 0.00 49 1018.4
20260506090042 16 359 4.8 17.7 0.00 0.00 0.00 51 1018.3
20260506084534 15 359 9.7 17.7 0.00 0.00 0.00 53 1018.3
20260506083034 15 359 9.7 19.3 0.00 0.00 0.00 53 1018.5
20260506081602 15 359 6.4 17.7 0.00 0.00 0.00 55 1018.5
20260506073034 13 359 8.0 16.1 0.00 0.00 0.00 58 1018.6
20260506071535 13 359 9.7 20.9 0.00 0.00 0.00 59 1018.7